Time,TemperatureF,DewpointF,PressureIn,WindDirection,WindDirectionDegrees,WindSpeedMPH,WindSpeedGustMPH,Humidity,HourlyPrecipIn,Conditions,Clouds,dailyrainin,SoftwareType,DateUTC
2013-01-04 00:01:00,14.4,1.4,30.16,West,270,0.0,0.0,56,0.00,,,0.00,WUHU216HW,2013-01-04 07:01:00,
2013-01-04 00:06:00,14.4,1.9,30.16,West,270,0.0,0.0,57,0.00,,,0.00,WUHU216HW,2013-01-04 07:06:00,
2013-01-04 00:11:00,14.4,1.4,30.15,West,270,0.0,0.0,56,0.00,,,0.00,WUHU216HW,2013-01-04 07:11:00,
2013-01-04 00:16:00,14.6,2.4,30.15,West,270,0.0,0.0,58,0.00,,,0.00,WUHU216HW,2013-01-04 07:16:00,
2013-01-04 00:21:00,14.6,2.4,30.15,West,270,0.0,0.0,58,0.00,,,0.00,WUHU216HW,2013-01-04 07:21:00,
2013-01-04 00:26:00,14.4,1.9,30.15,West,270,0.0,0.0,57,0.00,,,0.00,WUHU216HW,2013-01-04 07:26:00,
2013-01-04 00:31:00,14.2,1.7,30.15,West,270,0.0,0.0,57,0.00,,,0.00,WUHU216HW,2013-01-04 07:31:00,
2013-01-04 00:36:00,14.0,1.5,30.15,West,270,0.0,0.0,57,0.00,,,0.00,WUHU216HW,2013-01-04 07:36:00,
2013-01-04 00:41:00,14.0,1.5,30.15,West,270,0.0,0.0,57,0.00,,,0.00,WUHU216HW,2013-01-04 07:41:00,
2013-01-04 00:46:00,14.0,1.5,30.15,West,270,0.0,0.0,57,0.00,,,0.00,WUHU216HW,2013-01-04 07:46:00,
2013-01-04 00:51:00,13.9,1.4,30.15,West,270,0.0,0.0,57,0.00,,,0.00,WUHU216HW,2013-01-04 07:51:00,
2013-01-04 00:56:00,13.7,1.5,30.15,West,270,0.0,0.0,58,0.00,,,0.00,WUHU216HW,2013-01-04 07:56:00,
2013-01-04 01:01:00,13.7,1.5,30.15,West,270,0.0,0.0,58,0.00,,,0.00,WUHU216HW,2013-01-04 08:01:00,
2013-01-04 01:06:00,13.9,1.7,30.15,West,270,0.0,0.0,58,0.00,,,0.00,WUHU216HW,2013-01-04 08:06:00,
2013-01-04 01:11:00,13.7,1.5,30.15,West,270,0.0,0.0,58,0.00,,,0.00,WUHU216HW,2013-01-04 08:11:00,
2013-01-04 01:16:00,13.7,1.5,30.15,West,270,0.0,0.0,58,0.00,,,0.00,WUHU216HW,2013-01-04 08:16:00,
2013-01-04 01:21:00,13.7,2.3,30.15,West,270,0.0,0.0,60,0.00,,,0.00,WUHU216HW,2013-01-04 08:21:00,
2013-01-04 01:26:00,13.7,2.0,30.15,West,270,0.0,0.0,59,0.00,,,0.00,WUHU216HW,2013-01-04 08:26:00,
2013-01-04 01:31:00,13.7,1.5,30.15,West,270,0.0,0.0,58,0.00,,,0.00,WUHU216HW,2013-01-04 08:31:00,
2013-01-04 01:36:00,13.5,1.4,30.15,West,270,0.0,0.4,58,0.00,,,0.00,WUHU216HW,2013-01-04 08:36:00,
2013-01-04 01:41:00,13.7,2.0,30.15,West,270,0.0,0.4,59,0.00,,,0.00,WUHU216HW,2013-01-04 08:41:00,
2013-01-04 01:46:00,13.9,2.2,30.15,West,270,0.0,0.0,59,0.00,,,0.00,WUHU216HW,2013-01-04 08:46:00,
2013-01-04 01:51:00,13.7,2.0,30.15,West,270,0.0,0.0,59,0.00,,,0.00,WUHU216HW,2013-01-04 08:51:00,
2013-01-04 01:56:00,13.7,1.5,30.15,West,270,0.0,0.0,58,0.00,,,0.00,WUHU216HW,2013-01-04 08:56:00,
2013-01-04 02:02:00,13.5,1.4,30.15,West,270,0.0,0.0,58,0.00,,,0.00,WUHU216HW,2013-01-04 09:02:00,
2013-01-04 02:06:00,13.3,1.6,30.15,West,270,0.0,0.0,59,0.00,,,0.00,WUHU216HW,2013-01-04 09:06:00,
2013-01-04 02:11:00,13.3,1.6,30.15,West,270,0.0,0.0,59,0.00,,,0.00,WUHU216HW,2013-01-04 09:11:00,
2013-01-04 02:16:00,13.3,2.0,30.16,West,270,0.0,0.0,60,0.00,,,0.00,WUHU216HW,2013-01-04 09:16:00,
2013-01-04 02:21:00,13.3,2.0,30.15,West,270,0.0,0.0,60,0.00,,,0.00,WUHU216HW,2013-01-04 09:21:00,
2013-01-04 02:26:00,13.3,2.0,30.15,West,270,0.0,0.0,60,0.00,,,0.00,WUHU216HW,2013-01-04 09:26:00,
2013-01-04 02:31:00,13.3,2.0,30.15,West,270,0.0,0.0,60,0.00,,,0.00,WUHU216HW,2013-01-04 09:31:00,
2013-01-04 02:36:00,13.3,1.6,30.15,West,270,0.0,0.0,59,0.00,,,0.00,WUHU216HW,2013-01-04 09:36:00,
2013-01-04 02:41:00,13.3,2.0,30.15,West,270,0.0,0.0,60,0.00,,,0.00,WUHU216HW,2013-01-04 09:41:00,
2013-01-04 02:46:00,13.3,2.0,30.15,West,270,0.0,0.0,60,0.00,,,0.00,WUHU216HW,2013-01-04 09:46:00,
2013-01-04 02:51:00,13.3,2.0,30.15,West,270,0.0,0.0,60,0.00,,,0.00,WUHU216HW,2013-01-04 09:51:00,
2013-01-04 02:57:00,13.3,2.0,30.15,West,270,0.0,0.0,60,0.00,,,0.00,WUHU216HW,2013-01-04 09:57:00,
2013-01-04 03:02:00,13.3,2.4,30.15,West,270,0.0,0.0,61,0.00,,,0.00,WUHU216HW,2013-01-04 10:02:00,
2013-01-04 03:07:00,13.3,2.0,30.15,West,270,0.0,0.0,60,0.00,,,0.00,WUHU216HW,2013-01-04 10:07:00,
2013-01-04 03:12:00,13.1,1.8,30.15,West,270,0.0,0.0,60,0.00,,,0.00,WUHU216HW,2013-01-04 10:12:00,
2013-01-04 03:17:00,13.0,1.6,30.15,West,270,0.0,0.0,60,0.00,,,0.00,WUHU216HW,2013-01-04 10:17:00,
2013-01-04 03:22:00,12.8,1.4,30.15,West,270,0.0,0.0,60,0.00,,,0.00,WUHU216HW,2013-01-04 10:22:00,
2013-01-04 03:27:00,12.8,1.4,30.15,West,270,0.0,0.0,60,0.00,,,0.00,WUHU216HW,2013-01-04 10:27:00,
2013-01-04 03:32:00,12.8,1.8,30.15,West,270,0.0,0.0,61,0.00,,,0.00,WUHU216HW,2013-01-04 10:32:00,
2013-01-04 03:37:00,12.8,2.4,30.15,West,270,0.0,0.0,63,0.00,,,0.00,WUHU216HW,2013-01-04 10:37:00,
2013-01-04 03:42:00,12.8,2.4,30.14,West,270,0.0,0.2,63,0.00,,,0.00,WUHU216HW,2013-01-04 10:42:00,
2013-01-04 03:47:00,12.6,2.3,30.14,West,270,0.0,0.2,63,0.00,,,0.00,WUHU216HW,2013-01-04 10:47:00,
2013-01-04 03:52:00,12.6,2.3,30.14,West,270,0.0,0.0,63,0.00,,,0.00,WUHU216HW,2013-01-04 10:52:00,
2013-01-04 03:57:00,13.0,2.6,30.14,West,270,0.0,0.0,63,0.00,,,0.00,WUHU216HW,2013-01-04 10:57:00,
2013-01-04 04:02:00,13.0,2.6,30.14,West,270,0.0,0.0,63,0.00,,,0.00,WUHU216HW,2013-01-04 11:02:00,
2013-01-04 04:07:00,12.8,2.2,30.14,West,270,0.0,0.0,62,0.00,,,0.00,WUHU216HW,2013-01-04 11:07:00,
2013-01-04 04:12:00,12.8,2.2,30.14,West,270,0.0,0.0,62,0.00,,,0.00,WUHU216HW,2013-01-04 11:12:00,
2013-01-04 04:17:00,12.8,2.2,30.14,West,270,0.0,0.0,62,0.00,,,0.00,WUHU216HW,2013-01-04 11:17:00,
2013-01-04 04:22:00,12.8,2.4,30.14,West,270,0.0,0.0,63,0.00,,,0.00,WUHU216HW,2013-01-04 11:22:00,
2013-01-04 04:27:00,12.8,2.2,30.14,West,270,0.0,0.0,62,0.00,,,0.00,WUHU216HW,2013-01-04 11:27:00,
2013-01-04 04:32:00,12.8,2.2,30.14,West,270,0.0,0.0,62,0.00,,,0.00,WUHU216HW,2013-01-04 11:32:00,
2013-01-04 04:37:00,12.6,2.0,30.14,West,270,0.0,0.0,62,0.00,,,0.00,WUHU216HW,2013-01-04 11:37:00,
2013-01-04 04:42:00,12.6,2.6,30.14,West,270,0.0,0.0,64,0.00,,,0.00,WUHU216HW,2013-01-04 11:42:00,
2013-01-04 04:47:00,12.8,2.4,30.14,West,270,0.0,0.0,63,0.00,,,0.00,WUHU216HW,2013-01-04 11:47:00,
2013-01-04 04:52:00,12.6,2.3,30.14,West,270,0.0,0.0,63,0.00,,,0.00,WUHU216HW,2013-01-04 11:52:00,
2013-01-04 04:57:00,12.6,2.0,30.14,West,270,0.0,0.0,62,0.00,,,0.00,WUHU216HW,2013-01-04 11:57:00,
2013-01-04 05:02:00,12.6,2.0,30.14,West,270,0.0,0.0,62,0.00,,,0.00,WUHU216HW,2013-01-04 12:02:00,
2013-01-04 05:07:00,12.6,2.3,30.13,West,270,0.0,0.0,63,0.00,,,0.00,WUHU216HW,2013-01-04 12:07:00,
2013-01-04 05:12:00,12.6,2.6,30.13,West,270,0.0,0.0,64,0.00,,,0.00,WUHU216HW,2013-01-04 12:12:00,
2013-01-04 05:17:00,12.6,2.6,30.14,West,270,0.0,0.0,64,0.00,,,0.00,WUHU216HW,2013-01-04 12:17:00,
2013-01-04 05:22:00,12.6,2.3,30.14,West,270,0.0,0.0,63,0.00,,,0.00,WUHU216HW,2013-01-04 12:22:00,
2013-01-04 05:27:00,12.6,2.6,30.13,West,270,0.0,0.0,64,0.00,,,0.00,WUHU216HW,2013-01-04 12:27:00,
2013-01-04 05:32:00,12.6,2.6,30.13,West,270,0.0,0.0,64,0.00,,,0.00,WUHU216HW,2013-01-04 12:32:00,
2013-01-04 05:37:00,12.6,2.6,30.13,West,270,0.0,0.0,64,0.00,,,0.00,WUHU216HW,2013-01-04 12:37:00,
2013-01-04 05:42:00,12.4,2.4,30.13,West,270,0.0,0.0,64,0.00,,,0.00,WUHU216HW,2013-01-04 12:42:00,
2013-01-04 05:47:00,12.4,2.8,30.13,West,270,0.0,0.0,65,0.00,,,0.00,WUHU216HW,2013-01-04 12:47:00,
2013-01-04 05:52:00,12.6,3.0,30.13,West,270,0.0,0.0,65,0.00,,,0.00,WUHU216HW,2013-01-04 12:52:00,
2013-01-04 05:57:00,12.6,3.0,30.13,West,270,0.0,0.0,65,0.00,,,0.00,WUHU216HW,2013-01-04 12:57:00,
2013-01-04 06:02:00,12.4,2.8,30.13,West,270,0.0,0.0,65,0.00,,,0.00,WUHU216HW,2013-01-04 13:02:00,
2013-01-04 06:07:00,12.4,2.8,30.13,West,270,0.0,0.0,65,0.00,,,0.00,WUHU216HW,2013-01-04 13:07:00,
2013-01-04 06:12:00,12.6,3.0,30.13,West,270,0.0,0.0,65,0.00,,,0.00,WUHU216HW,2013-01-04 13:12:00,
2013-01-04 06:17:00,12.6,3.0,30.13,West,270,0.0,0.0,65,0.00,,,0.00,WUHU216HW,2013-01-04 13:17:00,
2013-01-04 06:22:00,12.6,3.0,30.13,West,270,0.0,0.0,65,0.00,,,0.00,WUHU216HW,2013-01-04 13:22:00,
2013-01-04 06:27:00,12.4,2.8,30.13,West,270,0.0,0.0,65,0.00,,,0.00,WUHU216HW,2013-01-04 13:27:00,
2013-01-04 06:32:00,12.2,2.6,30.13,West,270,0.0,0.0,65,0.00,,,0.00,WUHU216HW,2013-01-04 13:32:00,
2013-01-04 06:37:00,12.4,3.2,30.12,West,270,0.0,0.0,66,0.00,,,0.00,WUHU216HW,2013-01-04 13:37:00,
2013-01-04 06:42:00,12.4,2.8,30.13,West,270,0.0,0.0,65,0.00,,,0.00,WUHU216HW,2013-01-04 13:42:00,
2013-01-04 06:47:00,12.4,2.8,30.13,West,270,0.0,0.0,65,0.00,,,0.00,WUHU216HW,2013-01-04 13:47:00,
2013-01-04 06:52:00,12.4,2.8,30.12,West,270,0.0,0.0,65,0.00,,,0.00,WUHU216HW,2013-01-04 13:52:00,
2013-01-04 06:57:00,12.2,2.6,30.12,West,270,0.0,0.0,65,0.00,,,0.00,WUHU216HW,2013-01-04 13:57:00,
2013-01-04 07:02:00,12.2,2.6,30.12,West,270,0.0,0.0,65,0.00,,,0.00,WUHU216HW,2013-01-04 14:02:00,
2013-01-04 07:07:00,12.2,2.6,30.12,West,270,0.0,0.0,65,0.00,,,0.00,WUHU216HW,2013-01-04 14:07:00,
2013-01-04 07:12:00,12.2,2.6,30.12,West,270,0.0,0.0,65,0.00,,,0.00,WUHU216HW,2013-01-04 14:12:00,
2013-01-04 07:17:00,12.4,3.2,30.12,West,270,0.0,0.0,66,0.00,,,0.00,WUHU216HW,2013-01-04 14:17:00,
2013-01-04 07:22:00,12.4,3.2,30.12,West,270,0.0,0.0,66,0.00,,,0.00,WUHU216HW,2013-01-04 14:22:00,
2013-01-04 07:27:00,12.4,3.5,30.12,West,270,0.0,0.0,67,0.00,,,0.00,WUHU216HW,2013-01-04 14:27:00,
2013-01-04 07:32:00,12.4,3.5,30.12,West,270,0.0,0.0,67,0.00,,,0.00,WUHU216HW,2013-01-04 14:32:00,
2013-01-04 07:37:00,12.4,3.2,30.12,West,270,0.0,0.0,66,0.00,,,0.00,WUHU216HW,2013-01-04 14:37:00,
2013-01-04 07:42:00,12.6,3.3,30.12,West,270,0.0,0.0,66,0.00,,,0.00,WUHU216HW,2013-01-04 14:42:00,
2013-01-04 07:47:00,12.8,3.9,30.12,West,270,0.0,0.0,67,0.00,,,0.00,WUHU216HW,2013-01-04 14:47:00,
2013-01-04 07:52:00,13.3,4.4,30.12,West,270,0.0,0.0,67,0.00,,,0.00,WUHU216HW,2013-01-04 14:52:00,
2013-01-04 07:57:00,14.0,5.1,30.12,West,270,0.0,0.0,67,0.00,,,0.00,WUHU216HW,2013-01-04 14:57:00,
2013-01-04 08:02:00,14.9,6.0,30.12,West,270,0.0,0.0,67,0.00,,,0.00,WUHU216HW,2013-01-04 15:02:00,
2013-01-04 08:07:00,15.7,6.6,30.12,West,270,0.0,0.0,67,0.00,,,0.00,WUHU216HW,2013-01-04 15:07:00,
2013-01-04 08:12:00,16.6,7.1,30.12,West,270,0.0,0.0,66,0.00,,,0.00,WUHU216HW,2013-01-04 15:12:00,
2013-01-04 08:17:00,17.1,7.7,30.12,West,270,0.0,0.0,66,0.00,,,0.00,WUHU216HW,2013-01-04 15:17:00,
2013-01-04 08:22:00,18.0,8.2,30.12,West,270,0.0,0.0,65,0.00,,,0.00,WUHU216HW,2013-01-04 15:22:00,
2013-01-04 08:27:00,19.1,9.1,30.12,West,270,0.0,0.0,65,0.00,,,0.00,WUHU216HW,2013-01-04 15:27:00,
2013-01-04 08:32:00,19.8,9.8,30.12,West,270,0.0,0.0,65,0.00,,,0.00,WUHU216HW,2013-01-04 15:32:00,
2013-01-04 08:37:00,20.9,10.9,30.12,West,270,0.0,0.0,65,0.00,,,0.00,WUHU216HW,2013-01-04 15:37:00,
2013-01-04 08:42:00,22.1,11.8,30.12,West,270,0.0,0.0,64,0.00,,,0.00,WUHU216HW,2013-01-04 15:42:00,
2013-01-04 08:47:00,23.2,12.4,30.12,West,270,0.0,0.0,63,0.00,,,0.00,WUHU216HW,2013-01-04 15:47:00,
2013-01-04 08:52:00,24.3,12.8,30.12,West,270,0.0,0.0,61,0.00,,,0.00,WUHU216HW,2013-01-04 15:52:00,
2013-01-04 08:57:00,25.2,13.6,30.12,West,270,0.0,0.0,61,0.00,,,0.00,WUHU216HW,2013-01-04 15:57:00,
2013-01-04 09:02:00,26.5,14.4,30.13,SW,225,1.1,1.1,60,0.00,,,0.00,WUHU216HW,2013-01-04 16:02:00,
2013-01-04 09:07:00,27.4,14.5,30.13,South,180,0.0,1.1,58,0.00,,,0.00,WUHU216HW,2013-01-04 16:07:00,
2013-01-04 09:12:00,28.1,14.8,30.13,South,180,0.0,0.9,57,0.00,,,0.00,WUHU216HW,2013-01-04 16:12:00,
2013-01-04 09:17:00,28.8,15.0,30.13,South,180,0.0,0.2,56,0.00,,,0.00,WUHU216HW,2013-01-04 16:17:00,
2013-01-04 09:22:00,29.7,15.0,30.13,South,180,0.0,0.0,54,0.00,,,0.00,WUHU216HW,2013-01-04 16:22:00,
2013-01-04 09:27:00,30.4,15.3,30.13,South,180,0.0,0.2,53,0.00,,,0.00,WUHU216HW,2013-01-04 16:27:00,
2013-01-04 09:32:00,31.1,15.5,30.13,South,180,0.0,0.2,52,0.00,,,0.00,WUHU216HW,2013-01-04 16:32:00,
2013-01-04 09:37:00,31.9,16.2,30.13,SSE,158,0.9,0.9,52,0.00,,,0.00,WUHU216HW,2013-01-04 16:37:00,
2013-01-04 09:42:00,32.6,16.4,30.13,SSE,158,0.9,1.1,51,0.00,,,0.00,WUHU216HW,2013-01-04 16:42:00,
2013-01-04 09:47:00,33.3,16.7,30.13,SSE,158,0.4,1.1,50,0.00,,,0.00,WUHU216HW,2013-01-04 16:47:00,
2013-01-04 09:52:00,33.8,16.6,30.13,SSE,158,1.3,1.3,49,0.00,,,0.00,WUHU216HW,2013-01-04 16:52:00,
2013-01-04 09:57:00,34.4,16.7,30.13,SE,135,0.0,1.3,48,0.00,,,0.00,WUHU216HW,2013-01-04 16:57:00,
2013-01-04 10:02:00,34.9,16.7,30.13,SE,135,0.0,1.3,47,0.00,,,0.00,WUHU216HW,2013-01-04 17:02:00,
2013-01-04 10:07:00,35.5,17.2,30.13,SE,135,0.0,1.1,47,0.00,,,0.00,WUHU216HW,2013-01-04 17:07:00,
2013-01-04 10:12:00,35.8,17.0,30.13,SE,135,0.7,0.7,46,0.00,,,0.00,WUHU216HW,2013-01-04 17:12:00,
2013-01-04 10:17:00,36.4,16.9,30.13,SE,135,0.0,0.7,45,0.00,,,0.00,WUHU216HW,2013-01-04 17:17:00,
2013-01-04 10:22:00,36.9,17.5,30.13,SE,135,0.2,1.1,45,0.00,,,0.00,WUHU216HW,2013-01-04 17:22:00,
2013-01-04 10:27:00,37.3,17.7,30.13,SE,135,1.1,1.8,45,0.00,,,0.00,WUHU216HW,2013-01-04 17:27:00,
2013-01-04 10:32:00,38.0,17.9,30.13,SE,135,0.9,1.8,44,0.00,,,0.00,WUHU216HW,2013-01-04 17:32:00,
2013-01-04 10:37:00,38.3,18.2,30.13,SSE,158,1.8,1.8,44,0.00,,,0.00,WUHU216HW,2013-01-04 17:37:00,
2013-01-04 10:42:00,38.7,18.0,30.12,SSE,158,1.8,2.5,43,0.00,,,0.00,WUHU216HW,2013-01-04 17:42:00,
2013-01-04 10:47:00,39.1,17.8,30.12,ESE,113,0.9,2.5,42,0.00,,,0.00,WUHU216HW,2013-01-04 17:47:00,
2013-01-04 10:52:00,39.2,18.0,30.12,SE,135,2.2,2.5,42,0.00,,,0.00,WUHU216HW,2013-01-04 17:52:00,
2013-01-04 10:57:00,39.6,17.7,30.12,SE,135,2.2,2.9,41,0.00,,,0.00,WUHU216HW,2013-01-04 17:57:00,
2013-01-04 11:02:00,40.1,17.7,30.11,South,180,1.3,2.9,40,0.00,,,0.00,WUHU216HW,2013-01-04 18:02:00,
2013-01-04 11:07:00,40.5,17.4,30.12,South,180,2.0,2.5,39,0.00,,,0.00,WUHU216HW,2013-01-04 18:07:00,
2013-01-04 11:12:00,41.0,17.9,30.11,SSE,158,1.1,2.9,39,0.00,,,0.00,WUHU216HW,2013-01-04 18:12:00,
2013-01-04 11:17:00,41.4,17.6,30.11,SSE,158,1.8,2.9,38,0.00,,,0.00,WUHU216HW,2013-01-04 18:17:00,
2013-01-04 11:22:00,41.9,17.4,30.10,SSW,203,0.7,2.9,37,0.00,,,0.00,WUHU216HW,2013-01-04 18:22:00,
2013-01-04 11:27:00,42.5,17.2,30.10,SSE,158,1.3,3.4,36,0.00,,,0.00,WUHU216HW,2013-01-04 18:27:00,
2013-01-04 11:32:00,42.8,17.5,30.10,SSE,158,2.2,3.4,36,0.00,,,0.00,WUHU216HW,2013-01-04 18:32:00,
2013-01-04 11:37:00,43.2,15.9,30.09,SE,135,2.0,2.9,33,0.00,,,0.00,WUHU216HW,2013-01-04 18:37:00,
2013-01-04 11:42:00,43.7,16.3,30.09,SSW,203,0.9,2.9,33,0.00,,,0.00,WUHU216HW,2013-01-04 18:42:00,
2013-01-04 11:47:00,44.1,15.9,30.08,South,180,1.1,3.4,32,0.00,,,0.00,WUHU216HW,2013-01-04 18:47:00,
2013-01-04 11:52:00,44.3,16.1,30.08,SSE,158,1.1,3.4,32,0.00,,,0.00,WUHU216HW,2013-01-04 18:52:00,
2013-01-04 11:57:00,44.6,15.8,30.08,SE,135,0.2,2.5,31,0.00,,,0.00,WUHU216HW,2013-01-04 18:57:00,
2013-01-04 12:02:00,44.8,15.3,30.08,SE,135,3.1,3.1,30,0.00,,,0.00,WUHU216HW,2013-01-04 19:02:00,
2013-01-04 12:07:00,45.4,15.8,30.07,SE,135,1.1,3.1,30,0.00,,,0.00,WUHU216HW,2013-01-04 19:07:00,
2013-01-04 12:12:00,45.5,15.9,30.07,SE,135,1.8,3.1,30,0.00,,,0.00,WUHU216HW,2013-01-04 19:12:00,
2013-01-04 12:17:00,45.7,16.1,30.07,SE,135,1.3,2.0,30,0.00,,,0.00,WUHU216HW,2013-01-04 19:17:00,
2013-01-04 12:22:00,46.1,15.5,30.06,SSE,158,1.3,2.5,29,0.00,,,0.00,WUHU216HW,2013-01-04 19:22:00,
2013-01-04 12:27:00,46.4,15.9,30.06,SE,135,1.6,2.5,29,0.00,,,0.00,WUHU216HW,2013-01-04 19:27:00,
2013-01-04 12:32:00,46.8,15.2,30.06,ESE,113,0.4,1.6,28,0.00,,,0.00,WUHU216HW,2013-01-04 19:32:00,
2013-01-04 12:37:00,47.5,15.8,30.05,ESE,113,1.3,1.3,28,0.00,,,0.00,WUHU216HW,2013-01-04 19:37:00,
2013-01-04 12:42:00,47.9,15.2,30.05,SSE,158,0.0,2.2,27,0.00,,,0.00,WUHU216HW,2013-01-04 19:42:00,
2013-01-04 12:47:00,48.2,15.6,30.05,South,180,1.1,2.5,27,0.00,,,0.00,WUHU216HW,2013-01-04 19:47:00,
2013-01-04 12:52:00,48.4,15.7,30.04,ESE,113,0.2,2.5,27,0.00,,,0.00,WUHU216HW,2013-01-04 19:52:00,
2013-01-04 12:57:00,49.0,16.1,30.04,East,90,0.0,2.0,27,0.00,,,0.00,WUHU216HW,2013-01-04 19:57:00,
2013-01-04 13:02:00,49.9,16.9,30.04,South,180,0.0,2.0,27,0.00,,,0.00,WUHU216HW,2013-01-04 20:02:00,
2013-01-04 13:07:00,50.8,15.9,30.03,SE,135,1.1,1.8,25,0.00,,,0.00,WUHU216HW,2013-01-04 20:07:00,
2013-01-04 13:12:00,51.8,16.7,30.03,ENE,68,0.0,1.8,25,0.00,,,0.00,WUHU216HW,2013-01-04 20:12:00,
2013-01-04 13:17:00,51.8,16.7,30.03,ENE,68,0.0,1.8,25,0.00,,,0.00,WUHU216HW,2013-01-04 20:17:00,
2013-01-04 13:41:00,56.9,18.2,30.02,ENE,68,0.0,0.0,22,0.00,,,0.00,WUHU216HW,2013-01-04 20:41:00,
2013-01-04 13:46:00,57.8,17.0,30.02,NW,315,0.4,0.4,20,0.00,,,0.00,WUHU216HW,2013-01-04 20:46:00,
2013-01-04 13:51:00,57.1,17.4,30.02,East,90,0.0,0.4,21,0.00,,,0.00,WUHU216HW,2013-01-04 20:51:00,
2013-01-04 13:56:00,57.6,17.8,30.02,ENE,68,0.0,0.4,21,0.00,,,0.00,WUHU216HW,2013-01-04 20:56:00,
2013-01-04 14:01:00,59.8,19.6,30.02,North,0,0.0,0.4,21,0.00,,,0.00,WUHU216HW,2013-01-04 21:01:00,
2013-01-04 14:06:00,61.7,21.3,30.01,ENE,68,0.0,0.7,21,0.00,,,0.00,WUHU216HW,2013-01-04 21:06:00,
2013-01-04 14:11:00,63.7,22.0,30.01,ENE,68,0.0,1.8,20,0.00,,,0.00,WUHU216HW,2013-01-04 21:11:00,
2013-01-04 14:16:00,64.1,20.6,30.01,ENE,68,0.4,1.8,19,0.00,,,0.00,WUHU216HW,2013-01-04 21:16:00,
2013-01-04 14:21:00,63.7,20.3,30.01,ENE,68,0.0,1.1,19,0.00,,,0.00,WUHU216HW,2013-01-04 21:21:00,
2013-01-04 14:26:00,62.6,19.5,30.01,NE,45,1.3,1.3,19,0.00,,,0.00,WUHU216HW,2013-01-04 21:26:00,
2013-01-04 14:31:00,62.3,19.2,30.01,NE,45,0.0,1.3,19,0.00,,,0.00,WUHU216HW,2013-01-04 21:31:00,
2013-01-04 14:36:00,61.2,18.4,30.01,NE,45,0.0,0.9,19,0.00,,,0.00,WUHU216HW,2013-01-04 21:36:00,
2013-01-04 14:41:00,61.0,18.2,30.01,NE,45,0.0,0.7,19,0.00,,,0.00,WUHU216HW,2013-01-04 21:41:00,
2013-01-04 14:46:00,61.0,18.2,30.01,NE,45,0.0,0.0,19,0.00,,,0.00,WUHU216HW,2013-01-04 21:46:00,
2013-01-04 15:00:00,58.7,17.7,30.01,North,0,0.0,0.0,20,0.00,,,0.00,WUHU216HW,2013-01-04 22:00:00,
2013-01-04 15:05:00,58.9,17.8,30.01,North,0,0.4,0.4,20,0.00,,,0.00,WUHU216HW,2013-01-04 22:05:00,
2013-01-04 15:10:00,59.6,19.4,30.01,North,0,0.0,0.4,21,0.00,,,0.00,WUHU216HW,2013-01-04 22:10:00,
2013-01-04 15:15:00,61.2,20.9,30.01,North,0,0.0,0.4,21,0.00,,,0.00,WUHU216HW,2013-01-04 22:15:00,
2013-01-04 15:20:00,62.3,19.2,30.01,North,0,0.0,0.4,19,0.00,,,0.00,WUHU216HW,2013-01-04 22:20:00,
2013-01-04 15:25:00,62.6,19.5,30.01,North,0,0.0,0.4,19,0.00,,,0.00,WUHU216HW,2013-01-04 22:25:00,
2013-01-04 15:30:00,62.6,19.5,30.01,North,0,0.0,0.0,19,0.00,,,0.00,WUHU216HW,2013-01-04 22:30:00,
2013-01-04 15:51:00,52.2,15.2,30.01,North,0,0.0,0.0,23,0.00,,,0.00,WUHU216HW,2013-01-04 22:51:00,
2013-01-04 15:56:00,51.1,15.2,30.01,North,0,0.0,0.0,24,0.00,,,0.00,WUHU216HW,2013-01-04 22:56:00,
2013-01-04 16:01:00,50.0,15.2,30.00,North,0,0.0,0.2,25,0.00,,,0.00,WUHU216HW,2013-01-04 23:01:00,
2013-01-04 16:06:00,49.3,15.5,30.00,North,0,0.0,0.2,26,0.00,,,0.00,WUHU216HW,2013-01-04 23:06:00,
2013-01-04 16:11:00,48.6,15.8,30.00,North,0,0.0,0.0,27,0.00,,,0.00,WUHU216HW,2013-01-04 23:11:00,
2013-01-04 16:16:00,48.1,15.4,30.01,North,0,0.0,0.0,27,0.00,,,0.00,WUHU216HW,2013-01-04 23:16:00,
2013-01-04 16:21:00,47.3,15.7,30.01,North,0,0.0,0.0,28,0.00,,,0.00,WUHU216HW,2013-01-04 23:21:00,
2013-01-04 16:26:00,46.4,15.0,30.01,North,0,0.0,0.0,28,0.00,,,0.00,WUHU216HW,2013-01-04 23:26:00,
2013-01-04 16:31:00,45.9,14.4,30.01,North,0,0.0,0.0,28,0.00,,,0.00,WUHU216HW,2013-01-04 23:31:00,
2013-01-04 16:36:00,45.2,14.7,30.00,North,0,0.0,0.0,29,0.00,,,0.00,WUHU216HW,2013-01-04 23:36:00,
2013-01-04 16:41:00,44.5,14.0,30.01,North,0,0.0,0.0,29,0.00,,,0.00,WUHU216HW,2013-01-04 23:41:00,
2013-01-04 16:46:00,43.9,14.5,30.01,North,0,0.0,0.0,30,0.00,,,0.00,WUHU216HW,2013-01-04 23:46:00,
2013-01-04 16:51:00,43.2,13.0,30.01,North,0,0.0,0.0,29,0.00,,,0.00,WUHU216HW,2013-01-04 23:51:00,
2013-01-04 16:56:00,42.5,13.2,30.01,North,0,0.0,0.0,30,0.00,,,0.00,WUHU216HW,2013-01-04 23:56:00,
2013-01-04 17:01:00,41.8,12.6,30.01,North,0,0.0,0.0,30,0.00,,,0.00,WUHU216HW,2013-01-05 00:01:00,
2013-01-04 17:06:00,41.0,12.7,30.01,North,0,0.0,0.0,31,0.00,,,0.00,WUHU216HW,2013-01-05 00:06:00,
2013-01-04 17:11:00,40.3,12.1,30.01,North,0,0.0,0.0,31,0.00,,,0.00,WUHU216HW,2013-01-05 00:11:00,
2013-01-04 17:16:00,39.4,11.9,30.01,North,0,0.0,0.0,32,0.00,,,0.00,WUHU216HW,2013-01-05 00:16:00,
2013-01-04 17:21:00,38.3,11.6,30.01,North,0,0.0,0.0,33,0.00,,,0.00,WUHU216HW,2013-01-05 00:21:00,
2013-01-04 17:26:00,37.6,12.3,30.01,North,0,0.0,0.0,35,0.00,,,0.00,WUHU216HW,2013-01-05 00:26:00,
2013-01-04 17:31:00,36.9,11.6,30.02,North,0,0.9,0.9,35,0.00,,,0.00,WUHU216HW,2013-01-05 00:31:00,
2013-01-04 17:36:00,36.2,11.6,30.02,NNW,338,0.0,1.1,36,0.00,,,0.00,WUHU216HW,2013-01-05 00:36:00,
2013-01-04 17:41:00,35.3,12.7,30.02,NNW,338,0.0,1.1,39,0.00,,,0.00,WUHU216HW,2013-01-05 00:41:00,
2013-01-04 17:46:00,34.2,12.4,30.02,NNW,338,0.0,0.0,40,0.00,,,0.00,WUHU216HW,2013-01-05 00:46:00,
2013-01-04 17:51:00,33.5,12.2,30.02,NNW,338,0.0,0.4,41,0.00,,,0.00,WUHU216HW,2013-01-05 00:51:00,
2013-01-04 17:56:00,32.9,11.8,30.02,NNW,338,0.0,0.4,41,0.00,,,0.00,WUHU216HW,2013-01-05 00:56:00,
2013-01-04 18:01:00,32.6,12.0,30.02,NNW,338,0.0,0.0,42,0.00,,,0.00,WUHU216HW,2013-01-05 01:01:00,
2013-01-04 18:06:00,32.4,11.3,30.02,NNW,338,1.1,1.1,41,0.00,,,0.00,WUHU216HW,2013-01-05 01:06:00,
2013-01-04 18:11:00,32.4,11.3,30.02,NNW,338,1.1,1.1,41,0.00,,,0.00,WUHU216HW,2013-01-05 01:11:00,
2013-01-04 18:32:00,29.7,11.3,30.02,NW,315,0.2,0.2,46,0.00,,,0.00,WUHU216HW,2013-01-05 01:32:00,
2013-01-04 18:37:00,29.2,11.3,30.02,NW,315,0.0,0.2,47,0.00,,,0.00,WUHU216HW,2013-01-05 01:37:00,
2013-01-04 18:42:00,28.8,11.1,30.02,NW,315,0.9,0.9,47,0.00,,,0.00,WUHU216HW,2013-01-05 01:42:00,
2013-01-04 18:47:00,28.4,10.7,30.02,NW,315,0.4,0.9,47,0.00,,,0.00,WUHU216HW,2013-01-05 01:47:00,
2013-01-04 18:52:00,28.4,11.3,30.02,NW,315,0.0,0.4,48,0.00,,,0.00,WUHU216HW,2013-01-05 01:52:00,
2013-01-04 18:57:00,28.3,12.1,30.02,NW,315,0.7,0.7,50,0.00,,,0.00,WUHU216HW,2013-01-05 01:57:00,
2013-01-04 19:02:00,27.9,11.2,30.02,NW,315,0.0,0.7,49,0.00,,,0.00,WUHU216HW,2013-01-05 02:02:00,
2013-01-04 19:07:00,27.5,10.9,30.02,NW,315,0.0,0.0,49,0.00,,,0.00,WUHU216HW,2013-01-05 02:07:00,
2013-01-04 19:12:00,27.4,11.2,30.02,NW,315,0.0,0.0,50,0.00,,,0.00,WUHU216HW,2013-01-05 02:12:00,
2013-01-04 19:17:00,27.0,11.3,30.02,NW,315,0.0,0.0,51,0.00,,,0.00,WUHU216HW,2013-01-05 02:17:00,
2013-01-04 19:22:00,26.8,11.4,30.02,NW,315,0.0,0.0,52,0.00,,,0.00,WUHU216HW,2013-01-05 02:22:00,
2013-01-04 19:27:00,26.6,11.3,30.02,NW,315,0.0,0.0,52,0.00,,,0.00,WUHU216HW,2013-01-05 02:27:00,
2013-01-04 19:32:00,26.5,12.0,30.02,NW,315,0.2,0.4,54,0.00,,,0.00,WUHU216HW,2013-01-05 02:32:00,
2013-01-04 19:37:00,26.3,11.0,30.02,NW,315,0.0,0.4,52,0.00,,,0.00,WUHU216HW,2013-01-05 02:37:00,
2013-01-04 19:42:00,25.9,10.6,30.02,NW,315,0.0,0.9,52,0.00,,,0.00,WUHU216HW,2013-01-05 02:42:00,
2013-01-04 19:47:00,25.6,9.9,30.02,NW,315,0.0,0.9,51,0.00,,,0.00,WUHU216HW,2013-01-05 02:47:00,
2013-01-04 19:52:00,25.6,11.2,30.02,NW,315,0.0,0.0,54,0.00,,,0.00,WUHU216HW,2013-01-05 02:52:00,
2013-01-04 19:57:00,25.4,10.5,30.02,NW,315,0.0,0.0,53,0.00,,,0.00,WUHU216HW,2013-01-05 02:57:00,
2013-01-04 20:02:00,25.2,10.4,30.02,NW,315,0.0,0.0,53,0.00,,,0.00,WUHU216HW,2013-01-05 03:02:00,
2013-01-04 20:07:00,25.0,10.3,30.02,NW,315,0.0,0.0,53,0.00,,,0.00,WUHU216HW,2013-01-05 03:07:00,
2013-01-04 20:12:00,24.8,10.4,30.02,NW,315,0.0,0.0,54,0.00,,,0.00,WUHU216HW,2013-01-05 03:12:00,
2013-01-04 20:17:00,24.5,10.5,30.02,NW,315,0.0,0.2,55,0.00,,,0.00,WUHU216HW,2013-01-05 03:17:00,
2013-01-04 20:22:00,24.3,10.4,30.02,NW,315,0.0,0.2,55,0.00,,,0.00,WUHU216HW,2013-01-05 03:22:00,
2013-01-04 20:27:00,24.1,9.8,30.02,NW,315,0.0,0.7,54,0.00,,,0.00,WUHU216HW,2013-01-05 03:27:00,
2013-01-04 20:32:00,23.8,9.9,30.02,NW,315,0.0,0.7,55,0.00,,,0.00,WUHU216HW,2013-01-05 03:32:00,
2013-01-04 20:37:00,23.6,9.7,30.02,NW,315,0.0,0.7,55,0.00,,,0.00,WUHU216HW,2013-01-05 03:37:00,
2013-01-04 20:42:00,23.4,9.6,30.02,NW,315,0.0,0.4,55,0.00,,,0.00,WUHU216HW,2013-01-05 03:42:00,
2013-01-04 20:47:00,23.4,9.9,30.02,NW,315,0.0,0.0,56,0.00,,,0.00,WUHU216HW,2013-01-05 03:47:00,
2013-01-04 20:52:00,23.2,9.7,30.02,NW,315,0.0,0.0,56,0.00,,,0.00,WUHU216HW,2013-01-05 03:52:00,
2013-01-04 20:57:00,23.0,9.5,30.03,NW,315,0.0,0.0,56,0.00,,,0.00,WUHU216HW,2013-01-05 03:57:00,
2013-01-04 21:02:00,22.9,9.0,30.03,NW,315,0.0,0.0,55,0.00,,,0.00,WUHU216HW,2013-01-05 04:02:00,
2013-01-04 21:07:00,22.7,8.8,30.03,NW,315,0.0,0.0,55,0.00,,,0.00,WUHU216HW,2013-01-05 04:07:00,
2013-01-04 21:12:00,22.5,9.1,30.02,NW,315,0.0,0.0,56,0.00,,,0.00,WUHU216HW,2013-01-05 04:12:00,
2013-01-04 21:17:00,22.3,9.7,30.03,NW,315,0.0,0.0,58,0.00,,,0.00,WUHU216HW,2013-01-05 04:17:00,
2013-01-04 21:22:00,22.3,9.7,30.03,NW,315,0.0,0.0,58,0.00,,,0.00,WUHU216HW,2013-01-05 04:22:00,
2013-01-04 21:27:00,22.0,9.4,30.03,NW,315,0.0,0.0,58,0.00,,,0.00,WUHU216HW,2013-01-05 04:27:00,
2013-01-04 21:32:00,22.0,9.0,30.03,NW,315,0.0,0.0,57,0.00,,,0.00,WUHU216HW,2013-01-05 04:32:00,
2013-01-04 21:37:00,21.8,8.8,30.03,NW,315,0.0,0.0,57,0.00,,,0.00,WUHU216HW,2013-01-05 04:37:00,
2013-01-04 21:42:00,21.4,8.5,30.03,NW,315,0.0,0.0,57,0.00,,,0.00,WUHU216HW,2013-01-05 04:42:00,
2013-01-04 21:47:00,21.2,8.3,30.03,NW,315,0.0,0.0,57,0.00,,,0.00,WUHU216HW,2013-01-05 04:47:00,
2013-01-04 21:52:00,21.2,8.7,30.03,NW,315,0.0,0.0,58,0.00,,,0.00,WUHU216HW,2013-01-05 04:52:00,
2013-01-04 21:57:00,21.1,8.6,30.03,NW,315,0.0,0.0,58,0.00,,,0.00,WUHU216HW,2013-01-05 04:57:00,
2013-01-04 22:00:00,21.1,8.6,30.03,NW,315,0.0,0.0,58,0.00,,,0.00,WUHU216HW,2013-01-05 05:00:00,
2013-01-04 22:05:00,20.9,8.4,30.03,NW,315,0.0,0.0,58,0.00,,,0.00,WUHU216HW,2013-01-05 05:05:00,
2013-01-04 22:10:00,20.7,8.2,30.03,NW,315,0.0,0.0,58,0.00,,,0.00,WUHU216HW,2013-01-05 05:10:00,
2013-01-04 22:15:00,20.5,8.4,30.03,NW,315,0.0,0.0,59,0.00,,,0.00,WUHU216HW,2013-01-05 05:15:00,
2013-01-04 22:20:00,20.5,8.8,30.03,NW,315,0.0,0.0,60,0.00,,,0.00,WUHU216HW,2013-01-05 05:20:00,
2013-01-04 22:25:00,20.5,9.2,30.04,NW,315,0.0,0.0,61,0.00,,,0.00,WUHU216HW,2013-01-05 05:25:00,
2013-01-04 22:30:00,20.7,9.4,30.04,NW,315,0.0,0.0,61,0.00,,,0.00,WUHU216HW,2013-01-05 05:30:00,
2013-01-04 22:35:00,21.1,9.7,30.04,NW,315,0.0,0.0,61,0.00,,,0.00,WUHU216HW,2013-01-05 05:35:00,
2013-01-04 22:40:00,21.2,9.9,30.04,NW,315,0.0,0.0,61,0.00,,,0.00,WUHU216HW,2013-01-05 05:40:00,
2013-01-04 22:45:00,21.8,11.1,30.04,NW,315,0.0,0.0,63,0.00,,,0.00,WUHU216HW,2013-01-05 05:45:00,
2013-01-04 22:50:00,22.5,11.3,30.05,NW,315,0.0,0.0,62,0.00,,,0.00,WUHU216HW,2013-01-05 05:50:00,
2013-01-04 22:55:00,22.9,11.7,30.05,NW,315,0.0,0.0,62,0.00,,,0.00,WUHU216HW,2013-01-05 05:55:00,
2013-01-04 23:00:00,23.2,11.7,30.05,NW,315,0.0,0.0,61,0.00,,,0.00,WUHU216HW,2013-01-05 06:00:00,
2013-01-04 23:05:00,23.4,11.5,30.05,NW,315,0.0,0.0,60,0.00,,,0.00,WUHU216HW,2013-01-05 06:05:00,
2013-01-04 23:10:00,23.0,10.8,30.05,NW,315,0.0,0.0,59,0.00,,,0.00,WUHU216HW,2013-01-05 06:10:00,
2013-01-04 23:15:00,22.7,10.5,30.05,NW,315,0.0,0.0,59,0.00,,,0.00,WUHU216HW,2013-01-05 06:15:00,
2013-01-04 23:20:00,22.7,10.5,30.05,NW,315,0.0,0.0,59,0.00,,,0.00,WUHU216HW,2013-01-05 06:20:00,
2013-01-04 23:43:00,22.5,10.7,30.06,NW,315,0.0,0.0,60,0.00,,,0.00,WUHU216HW,2013-01-05 06:43:00,
2013-01-04 23:48:00,22.1,10.4,30.05,NW,315,0.0,0.0,60,0.00,,,0.00,WUHU216HW,2013-01-05 06:48:00,
2013-01-04 23:53:00,22.0,10.2,30.05,NW,315,0.0,0.0,60,0.00,,,0.00,WUHU216HW,2013-01-05 06:53:00,
2013-01-04 23:58:00,21.6,9.9,30.06,NW,315,0.0,0.0,60,0.00,,,0.00,WUHU216HW,2013-01-05 06:58:00,